Wind_Speed
16 16 16 16 16 14 14 15 15 15 14 14 14 14 12 11 11 11 12 12 12 13 13 14 15 16 17 17 18 18 19 19 20 21 22 22 23 24 24 24 24 24 24
16 17 17 18 17 16 15 15 16 15 15 15 14 14 13 13 12 13 13 13 13 14 15 15 16 16 17 18 19 19 19 20 21 21 22 23 24 24 25 25 24 25 26
18 18 18 19 19 18 16 17 17 16 16 15 15 16 15 14 14 14 13 14 14 15 16 17 17 17 18 19 19 20 20 20 21 23 23 24 24 25 25 25 25 26 26
19 20 20 20 20 19 17 17 17 16 16 16 16 17 17 16 15 15 15 15 16 17 17 17 17 18 19 20 20 21 21 22 22 23 23 24 25 26 26 26 27 27 27
20 21 21 21 21 21 20 18 18 17 16 17 17 18 17 16 16 16 16 17 18 18 18 18 18 19 20 20 21 22 23 23 23 24 24 25 25 25 26 27 27 27 28
21 22 22 22 22 22 22 20 18 18 18 18 19 19 19 18 17 18 18 18 18 19 19 19 20 21 21 21 22 23 23 24 24 24 25 25 25 26 26 27 28 28 28
23 24 24 23 23 23 22 21 20 19 19 19 20 20 20 19 19 19 19 19 20 20 20 20 21 22 22 23 23 24 24 24 25 25 26 26 26 26 27 27 28 29 30
24 25 25 25 24 24 22 21 21 21 20 20 20 21 21 21 20 20 20 20 21 22 22 22 22 23 24 24 24 24 25 25 26 26 27 27 27 27 28 28 29 30 30
25 25 26 25 25 24 24 22 22 22 21 21 21 21 22 22 21 21 21 22 22 23 23 23 24 24 24 24 25 26 26 27 27 27 28 28 29 29 29 30 30 31 31
26 26 26 26 25 25 24 23 23 23 23 23 23 23 23 23 22 23 23 23 23 24 24 24 24 25 25 26 27 28 28 28 28 28 28 29 30 30 30 31 31 31 30
26 27 27 27 26 25 25 25 25 25 24 25 25 24 24 24 24 24 24 24 25 25 25 25 26 26 27 28 29 29 29 29 29 29 30 30 31 31 31 31 31 30 30
27 28 28 28 28 27 27 27 27 26 26 26 25 25 25 25 25 25 25 25 25 25 26 26 27 28 29 29 30 30 30 30 30 30 31 31 31 31 31 31 31 31 30
29 30 30 29 29 29 29 28 27 27 27 27 26 26 26 27 27 27 27 26 26 26 27 28 29 29 30 30 30 30 30 30 30 31 31 31 31 31 31 31 30 30 30
30 30 31 31 31 30 29 29 28 28 28 28 28 27 28 28 28 27 27 27 28 28 29 29 30 30 30 30 30 30 30 30 31 31 31 31 31 30 30 30 30 30 30
31 32 32 32 32 31 30 30 29 30 30 30 29 29 29 29 29 29 28 29 29 30 30 30 30 30 30 30 30 30 30 30 31 31 30 30 30 30 30 30 30 30 30
33 33 33 33 32 32 32 31 30 30 30 30 30 30 30 29 29 29 30 30 30 30 30 30 31 30 30 30 30 30 30 31 31 30 30 31 30 30 31 30 30 30 29
35 34 34 33 33 33 33 32 32 32 31 31 31 31 31 31 30 30 30 31 31 31 31 31 31 31 31 31 31 31 31 31 31 31 31 31 31 31 31 30 30 29 29
35 35 35 34 34 34 33 33 33 33 32 31 32 32 32 31 31 31 31 32 32 32 32 32 32 32 31 31 31 31 31 31 31 31 31 31 31 31 30 30 29 29 29
35 35 35 34 34 34 33 33 33 33 32 33 33 32 32 32 31 31 32 32 32 32 32 32 32 33 32 32 32 31 31 31 31 31 31 31 31 30 30 30 29 29 29
35 35 35 35 34 34 34 34 34 34 34 33 32 33 33 33 32 32 32 33 33 33 33 33 33 33 33 33 32 31 31 30 30 31 31 31 30 31 31 30 30 30 29
36 35 35 35 34 34 33 33 34 34 34 34 34 34 34 33 33 33 33 33 33 33 33 34 34 33 33 32 31 31 31 31 31 31 31 31 31 30 30 30 30 29 30
36 36 36 35 34 33 32 32 33 34 34 34 34 34 34 33 34 34 34 34 34 33 33 33 33 33 32 31 31 31 31 31 31 31 31 31 31 31 30 30 30 30 31
36 35 35 34 33 33 33 33 33 34 34 34 34 33 33 33 33 33 33 34 33 32 32 32 33 31 30 30 30 31 31 31 31 31 31 31 31 31 31 31 31 31 31
34 34 33 33 33 33 33 33 33 34 34 34 33 33 33 32 33 33 33 33 32 32 31 31 31 31 31 31 31 31 31 32 32 32 32 32 31 31 31 31 31 31 32
33 33 33 33 33 33 33 33 33 33 33 33 33 32 32 33 33 33 33 33 32 31 31 31 31 31 31 31 32 32 32 32 32 32 32 32 32 32 32 32 32 32 32
33 33 33 33 33 33 33 33 33 33 33 32 32 32 32 32 33 33 33 32 32 31 31 31 32 32 32 32 32 32 32 32 32 32 32 33 33 33 33 33 33 33 33
Wind_Direction
357 358 358 355 353 349 346 345 343 342 340 336 335 333 323 317 310 306 305 305 303 303 302 301 302 302 302 301 302 303 302 300 300 299 297 296 296 295 295 295 294 292 291
351 352 351 348 347 345 342 342 344 342 340 338 334 334 326 319 314 309 307 306 303 302 304 306 306 305 303 302 303 303 303 302 302 303 301 300 300 298 296 295 295 294 292
350 350 348 345 344 343 340 340 338 337 337 337 334 331 327 321 317 312 309 308 306 305 304 305 306 306 304 304 304 304 305 305 305 305 304 304 304 302 300 297 296 296 295
345 345 343 342 342 340 337 334 333 332 332 332 331 330 327 323 318 315 312 309 307 307 307 307 307 306 304 304 305 305 305 306 306 307 307 305 302 301 300 298 298 298 296
339 339 340 339 339 337 336 333 329 327 327 328 329 329 327 322 319 316 312 309 308 308 308 309 309 309 308 306 306 305 306 307 308 307 307 305 303 303 302 301 301 301 299
334 336 336 336 334 335 334 332 329 324 324 325 326 326 326 321 316 314 311 311 308 307 307 308 310 311 310 308 307 308 309 309 308 308 307 307 305 304 304 304 303 303 301
328 331 332 332 332 332 330 329 328 326 324 323 323 324 323 321 316 312 309 310 311 309 308 309 310 311 310 309 308 309 310 310 309 309 309 309 307 306 305 305 304 304 303
323 326 328 328 328 327 326 325 325 323 322 321 321 321 321 319 316 313 310 310 310 309 308 308 308 309 310 309 310 311 311 312 311 310 308 307 307 307 306 306 305 304 303
318 322 324 324 323 324 323 323 323 322 321 319 319 318 318 317 315 312 310 309 310 309 307 307 307 308 309 309 309 309 310 310 309 308 307 306 306 306 305 305 305 304 302
313 316 319 319 319 320 320 320 319 318 318 318 316 315 315 314 314 313 311 310 309 308 307 307 307 307 308 309 308 309 309 309 309 307 307 306 306 305 304 304 304 304 302
307 310 313 316 317 317 316 315 315 315 315 314 314 313 313 312 311 313 312 311 310 308 308 308 307 307 308 308 308 308 308 308 307 307 307 307 306 306 304 304 304 303 303
301 306 309 311 313 312 313 313 312 312 312 312 312 312 311 310 309 310 311 310 310 309 308 309 309 309 308 308 308 307 307 307 307 307 307 307 306 306 305 304 304 303 303
298 302 305 308 309 308 309 311 311 310 309 309 309 309 309 309 308 308 309 310 310 309 309 309 309 310 309 309 309 309 308 308 308 307 307 307 306 306 306 306 306 305 305
296 299 303 304 305 306 306 307 307 308 307 307 307 307 307 307 307 307 307 307 308 309 309 309 309 309 309 309 309 308 308 307 307 308 308 307 307 307 307 308 307 306 306
294 297 299 301 303 304 304 304 304 305 305 305 305 305 305 306 305 305 305 306 307 308 308 308 309 309 309 309 309 309 308 308 307 307 307 307 307 307 307 308 308 308 307
292 296 297 298 300 302 302 302 303 303 303 303 303 303 304 304 304 304 305 306 306 307 309 309 309 309 310 310 309 308 308 307 307 307 307 307 307 307 307 307 307 307 307
290 293 296 297 298 299 299 299 300 301 301 301 302 302 302 302 302 303 303 304 305 307 308 308 309 309 310 310 309 308 308 307 306 306 307 307 307 307 307 307 308 308 308
288 290 293 295 297 297 297 297 298 299 299 299 300 302 301 301 301 302 303 304 304 305 307 307 308 309 309 309 309 308 308 307 306 306 307 307 307 307 307 307 308 308 308
286 289 292 294 295 295 295 296 296 296 296 298 299 300 301 301 301 301 303 303 303 304 305 306 306 307 308 308 309 308 308 308 307 307 307 308 308 308 308 308 307 307 308
286 288 291 292 293 293 293 294 295 294 295 297 298 299 300 300 301 300 301 301 302 302 303 304 305 306 306 307 308 308 308 309 309 309 308 309 309 310 309 308 308 308 308
285 287 288 290 291 292 293 293 294 294 296 297 298 298 298 299 299 299 299 299 300 300 301 303 304 305 305 306 306 307 308 308 309 309 309 309 309 309 309 308 308 309 310
284 285 286 287 289 290 291 293 294 295 295 296 298 298 298 299 299 300 299 299 299 300 301 302 303 304 305 305 306 307 308 308 308 309 309 308 308 308 308 308 308 308 308
282 283 284 286 288 289 290 292 293 294 295 296 297 297 298 299 299 300 300 300 299 300 301 302 303 304 305 305 305 306 306 306 307 307 307 307 308 308 308 307 307 307 308
280 281 284 285 287 287 289 290 292 293 294 295 296 296 296 297 297 298 300 300 300 300 301 301 302 303 304 305 305 305 305 305 306 306 307 307 307 306 306 308 308 308 308
280 282 283 284 285 286 287 289 291 291 293 294 295 295 296 297 297 298 299 299 299 300 301 301 302 303 303 303 304 305 304 304 305 305 305 305 305 305 305 305 306 307 307
280 281 282 284 285 286 287 288 289 290 292 293 294 295 296 297 297 298 298 299 299 299 299 300 301 303 303 303 305 306 306 305 305 305 305 304 304 303 303 305 306 307 307
Height
5917 5915 5912 5910 5907 5905 5903 5900 5899 5897 5895 5893 5891 5889 5887 5886 5885 5884 5883 5882 5881 5880 5879 5877 5876 5875 5873 5872 5870 5868 5866 5865 5863 5861 5859 5857 5855 5853 5851 5849 5847 5845 5843
5917 5914 5912 5909 5907 5904 5902 5899 5897 5895 5894 5892 5890 5888 5885 5884 5883 5881 5880 5879 5878 5877 5875 5874 5872 5871 5869 5868 5866 5864 5862 5860 5858 5856 5854 5851 5849 5847 5844 5842 5841 5839 5837
5916 5914 5911 5909 5906 5903 5901 5898 5896 5894 5892 5890 5888 5886 5884 5882 5880 5879 5877 5876 5875 5874 5872 5871 5869 5867 5865 5864 5862 5860 5857 5855 5853 5851 5849 5846 5843 5841 5838 5836 5834 5832 5830
5915 5913 5910 5907 5905 5902 5899 5897 5894 5892 5890 5888 5886 5884 5882 5880 5878 5876 5875 5873 5872 5870 5869 5867 5865 5863 5861 5859 5857 5855 5853 5851 5848 5846 5843 5840 5837 5834 5832 5829 5827 5825 5823
5914 5911 5908 5905 5903 5900 5897 5894 5892 5890 5888 5886 5884 5882 5880 5877 5875 5874 5872 5870 5869 5867 5865 5863 5861 5859 5857 5855 5853 5850 5848 5845 5843 5840 5837 5835 5831 5828 5826 5823 5820 5817 5815
5913 5910 5907 5904 5900 5897 5894 5891 5889 5888 5886 5884 5881 5879 5877 5874 5872 5871 5869 5867 5865 5863 5861 5859 5857 5855 5853 5850 5848 5845 5842 5840 5837 5834 5831 5828 5825 5822 5819 5816 5814 5811 5808
5910 5908 5905 5902 5898 5895 5892 5889 5887 5885 5883 5881 5878 5876 5874 5871 5869 5867 5865 5863 5861 5859 5857 5855 5853 5850 5848 5845 5842 5840 5837 5834 5831 5828 5825 5822 5819 5816 5813 5810 5807 5804 5801
5907 5905 5902 5899 5896 5893 5890 5887 5884 5882 5880 5877 5875 5873 5870 5868 5865 5863 5861 5859 5857 5855 5852 5850 5848 5845 5842 5840 5837 5834 5831 5828 5825 5822 5819 5816 5813 5809 5806 5804 5800 5797 5794
5904 5901 5898 5895 5893 5890 5887 5884 5881 5879 5877 5874 5872 5869 5867 5864 5862 5859 5857 5855 5852 5850 5847 5845 5842 5840 5837 5834 5831 5828 5825 5822 5819 5816 5812 5809 5806 5802 5799 5796 5793 5789 5786
5900 5898 5895 5892 5889 5886 5883 5881 5878 5876 5873 5871 5868 5865 5863 5860 5857 5855 5852 5850 5847 5845 5842 5840 5837 5834 5831 5828 5825 5822 5819 5816 5812 5809 5806 5802 5799 5795 5792 5788 5785 5781 5778
5896 5893 5891 5888 5885 5882 5880 5877 5874 5872 5869 5866 5864 5861 5858 5856 5853 5850 5847 5844 5842 5839 5837 5834 5831 5828 5825 5822 5819 5816 5812 5809 5806 5802 5799 5795 5791 5788 5784 5780 5777 5773 5770
5891 5889 5886 5883 5881 5878 5875 5872 5869 5867 5864 5861 5859 5856 5853 5851 5848 5845 5842 5839 5836 5833 5831 5828 5825 5822 5818 5815 5812 5809 5805 5802 5798 5795 5791 5788 5784 5780 5776 5773 5769 5765 5762
5885 5883 5880 5878 5875 5873 5870 5867 5864 5861 5859 5856 5853 5850 5848 5845 5842 5839 5836 5833 5830 5827 5825 5821 5818 5815 5811 5808 5805 5801 5798 5794 5791 5787 5784 5780 5777 5773 5769 5765 5761 5758 5754
5879 5876 5874 5871 5869 5866 5864 5861 5858 5855 5853 5850 5847 5844 5842 5839 5836 5833 5830 5827 5824 5821 5818 5815 5811 5808 5804 5801 5797 5794 5791 5787 5783 5780 5776 5772 5769 5765 5762 5758 5754 5751 5747
5871 5869 5867 5865 5862 5860 5857 5854 5851 5849 5846 5844 5841 5838 5835 5832 5830 5827 5824 5821 5818 5815 5811 5808 5804 5801 5797 5794 5790 5787 5783 5780 5776 5772 5769 5765 5762 5758 5754 5751 5747 5743 5739
5864 5862 5859 5857 5855 5852 5850 5847 5844 5842 5839 5836 5834 5831 5828 5826 5823 5820 5817 5814 5811 5807 5804 5801 5797 5794 5790 5787 5783 5780 5776 5772 5768 5765 5761 5758 5754 5751 5747 5743 5739 5735 5732
5855 5853 5851 5849 5847 5844 5842 5839 5837 5835 5832 5829 5826 5824 5821 5818 5815 5812 5809 5806 5803 5800 5797 5793 5790 5786 5783 5779 5776 5772 5768 5765 5761 5757 5754 5750 5747 5743 5739 5735 5732 5728 5724
5846 5845 5843 5841 5838 5836 5833 5831 5829 5826 5824 5821 5819 5816 5813 5810 5807 5804 5801 5799 5796 5792 5789 5786 5782 5779 5775 5771 5768 5764 5760 5757 5753 5750 5746 5742 5739 5735 5731 5728 5724 5720 5717
5838 5836 5834 5832 5830 5827 5825 5823 5820 5818 5816 5813 5811 5808 5805 5802 5799 5796 5793 5791 5788 5784 5781 5778 5774 5771 5767 5763 5760 5756 5752 5749 5745 5742 5739 5735 5731 5727 5724 5720 5716 5713 5709
5829 5827 5825 5823 5821 5819 5816 5814 5812 5809 5807 5805 5802 5800 5797 5794 5791 5788 5785 5782 5779 5776 5773 5770 5766 5763 5759 5756 5752 5748 5745 5741 5738 5734 5731 5727 5723 5720 5716 5713 5709 5705 5702
5820 5818 5816 5814 5812 5810 5808 5805 5803 5801 5799 5796 5794 5791 5788 5786 5783 5780 5777 5774 5771 5768 5764 5761 5758 5754 5751 5747 5744 5741 5737 5734 5730 5727 5723 5719 5716 5712 5708 5705 5701 5698 5694
5810 5809 5807 5805 5803 5801 5799 5797 5795 5792 5790 5788 5785 5782 5779 5776 5774 5771 5768 5765 5762 5759 5755 5752 5749 5746 5743 5739 5736 5733 5729 5726 5722 5719 5715 5712 5708 5705 5701 5697 5694 5690 5687
5800 5799 5798 5796 5794 5792 5790 5788 5786 5783 5781 5778 5776 5773 5770 5767 5765 5762 5759 5756 5753 5750 5747 5744 5741 5738 5734 5731 5728 5725 5722 5718 5715 5711 5707 5704 5700 5696 5693 5689 5686 5682 5679
5790 5789 5788 5786 5785 5783 5781 5779 5776 5774 5772 5769 5767 5764 5762 5759 5756 5753 5750 5747 5744 5741 5738 5736 5732 5730 5727 5723 5720 5717 5713 5710 5706 5703 5699 5696 5692 5688 5685 5681 5678 5674 5670
5781 5780 5779 5777 5775 5774 5772 5770 5767 5765 5763 5760 5758 5755 5753 5750 5748 5745 5742 5739 5736 5733 5730 5727 5724 5721 5718 5715 5712 5708 5705 5701 5697 5694 5690 5687 5684 5680 5676 5673 5669 5665 5662
5772 5770 5769 5768 5766 5764 5762 5760 5758 5756 5754 5751 5749 5747 5744 5741 5739 5736 5733 5730 5727 5725 5722 5719 5716 5713 5710 5706 5703 5700 5696 5692 5689 5685 5682 5678 5675 5671 5667 5664 5660 5656 5652